SR9WXP Weather Reports


time (UTC)temp
F
wind
direction
speed
knots
gust
knots
rain 1hr
in
rain 24hr
in
rain mn
in
humidity
%
barometer
mb
20260905195551 47 256 15.6 26.1 0.00 0.00 0.00 31 859.9
20260905195449 47 261 13.9 18.2 0.00 0.00 0.00 31 859.9
20260905195351 47 264 13.9 21.7 0.00 0.00 0.00 31 859.9
20260905195150 47 260 13.9 21.7 0.00 0.00 0.00 31 859.9
20260905194946 47 258 14.8 19.1 0.00 0.00 0.00 31 859.9
20260905194747 47 260 13.9 19.1 0.00 0.00 0.00 31 859.9
20260905194548 47 266 13.0 18.2 0.00 0.00 0.00 31 860.0
20260905194446 47 270 13.0 16.5 0.00 0.00 0.00 31 860.0
20260905194348 47 270 13.9 18.2 0.00 0.00 0.00 31 860.0
20260905194147 47 268 14.8 20.0 0.00 0.00 0.00 31 859.9
20260905193944 47 261 15.6 19.1 0.00 0.00 0.00 31 860.0
20260905193746 47 266 15.6 22.6 0.00 0.00 0.00 31 860.0
20260905193546 47 270 14.8 22.6 0.00 0.00 0.00 31 859.8
20260905193444 47 273 14.8 21.7 0.00 0.00 0.00 31 859.8
20260905193345 47 272 15.6 21.7 0.00 0.00 0.00 31 859.8
20260905193145 47 266 15.6 23.5 0.00 0.00 0.00 31 859.8
20260905192927 47 262 13.9 18.2 0.00 0.00 0.00 31 859.9
20260905192728 47 269 15.6 21.7 0.00 0.00 0.00 31 859.9
20260905192528 47 267 17.4 22.6 0.00 0.00 0.00 31 859.9
20260905192427 47 268 16.5 22.6 0.00 0.00 0.00 31 859.9
20260905192328 47 265 17.4 22.6 0.00 0.00 0.00 31 859.9
20260905192128 47 261 14.8 20.9 0.00 0.00 0.00 31 859.9
20260905191924 47 272 13.9 20.9 0.00 0.00 0.00 31 859.9
20260905191726 47 274 13.9 19.1 0.00 0.00 0.00 31 859.9
20260905191526 47 263 15.6 20.9 0.00 0.00 0.00 31 859.9
20260905191424 47 264 14.8 20.9 0.00 0.00 0.00 31 859.9
20260905191326 47 268 13.9 19.1 0.00 0.00 0.00 31 859.8
20260905191125 47 274 15.6 20.9 0.00 0.00 0.00 31 859.7
20260905190921 47 270 16.5 20.9 0.00 0.00 0.00 31 859.7
20260905190723 47 266 17.4 26.1 0.00 0.00 0.00 31 859.7
20260905190524 47 266 15.6 26.1 0.00 0.00 0.00 31 859.8
20260905190421 47 266 15.6 22.6 0.00 0.00 0.00 31 859.8
20260905190323 47 262 16.5 22.6 0.00 0.00 0.00 31 859.8
20260905190122 47 270 15.6 21.7 0.00 0.00 0.00 31 859.7
20260905185918 47 266 17.4 24.3 0.00 0.00 0.00 31 859.7
20260905185720 47 263 17.4 26.1 0.00 0.00 0.00 31 859.7
20260905185520 47 253 17.4 26.1 0.00 0.00 0.00 31 859.7
20260905185418 47 249 19.1 26.1 0.00 0.00 0.00 31 859.6
20260905185119 47 264 17.4 26.9 0.00 0.00 0.00 31 859.5
20260905184916 47 268 15.6 22.6 0.00 0.00 0.00 31 859.5
20260905184716 47 274 15.6 20.0 0.00 0.00 0.00 31 859.5
20260905184516 47 265 18.2 22.6 0.00 0.00 0.00 31 859.6
20260905184415 47 264 18.2 22.6 0.00 0.00 0.00 31 859.6
20260905184316 47 263 17.4 22.6 0.00 0.00 0.00 31 859.7
20260905184115 47 272 15.6 20.0 0.00 0.00 0.00 31 859.7
20260905183911 47 270 14.8 20.9 0.00 0.00 0.00 31 859.7
20260905183712 47 257 15.6 22.6 0.00 0.00 0.00 31 859.6
20260905183513 47 261 16.5 25.2 0.00 0.00 0.00 31 859.6
20260905183411 47 265 17.4 25.2 0.00 0.00 0.00 31 859.5
20260905183312 48 264 17.4 25.2 0.00 0.00 0.00 31 859.5
20260905183112 48 270 15.6 23.5 0.00 0.00 0.00 31 859.5
20260905182907 48 270 14.8 20.9 0.00 0.00 0.00 31 859.5
20260905182708 48 263 18.2 26.9 0.00 0.00 0.00 31 859.4
20260905182509 47 264 19.1 26.1 0.00 0.00 0.00 31 859.3
20260905182407 47 269 19.1 26.1 0.00 0.00 0.00 31 859.3
20260905182308 47 268 18.2 25.2 0.00 0.00 0.00 31 859.3
20260905182108 47 265 17.4 25.2 0.00 0.00 0.00 31 859.6
20260905181904 47 263 15.6 21.7 0.00 0.00 0.00 31 859.6
20260905181705 47 267 13.9 18.2 0.00 0.00 0.00 31 859.5
20260905181505 47 262 15.6 20.0 0.00 0.00 0.00 31 859.4
20260905181404 47 258 16.5 26.9 0.00 0.00 0.00 31 859.4
20260905181306 47 255 17.4 26.9 0.00 0.00 0.00 31 859.5
20260905181105 47 259 18.2 26.1 0.00 0.00 0.00 31 859.5
20260905180901 47 267 16.5 26.1 0.00 0.00 0.00 31 859.5
20260905180703 47 268 14.8 20.9 0.00 0.00 0.00 31 859.3
20260905180504 47 260 16.5 20.9 0.00 0.00 0.00 31 859.3
20260905180403 47 259 15.6 20.0 0.00 0.00 0.00 31 859.3
20260905180302 47 258 13.9 19.1 0.00 0.00 0.00 31 859.4
20260905175859 48 259 15.6 21.7 0.00 0.00 0.00 31 859.2
20260905175700 48 264 16.5 20.9 0.00 0.00 0.00 31 859.2
20260905175459 48 264 14.8 20.9 0.00 0.00 0.00 31 859.3
20260905175359 48 265 14.8 20.9 0.00 0.00 0.00 31 859.3
20260905175259 48 269 13.9 17.4 0.00 0.00 0.00 31 859.3
20260905175100 48 266 15.6 23.5 0.00 0.00 0.00 31 859.3
20260905175022 48 257 15.6 23.5 0.00 0.00 0.00 31 859.3
20260905174855 48 257 15.6 23.5 0.00 0.00 0.00 31 859.3
20260905174456 48 262 12.2 16.5 0.00 0.00 0.00 31 859.4
20260905174355 48 261 13.0 19.1 0.00 0.00 0.00 31 859.4
20260905174256 48 261 13.9 19.1 0.00 0.00 0.00 31 859.3
20260905173937 48 260 13.0 18.2 0.00 0.00 0.00 31 859.3
20260905173852 48 260 13.0 18.2 0.00 0.00 0.00 31 859.3
20260905173653 48 270 13.0 19.1 0.00 0.00 0.00 31 859.3
20260905173453 47 261 14.8 20.9 0.00 0.00 0.00 31 859.2
20260905173352 47 256 15.6 20.9 0.00 0.00 0.00 31 859.2
20260905173254 47 260 13.9 20.0 0.00 0.00 0.00 31 859.2
20260905173054 47 262 13.0 17.4 0.00 0.00 0.00 31 859.3
20260905172849 47 261 13.0 17.4 0.00 0.00 0.00 31 859.3
20260905172651 47 263 14.8 23.5 0.00 0.00 0.00 31 859.2
20260905172349 47 251 16.5 24.3 0.00 0.00 0.00 31 859.1
20260905172251 47 258 16.5 24.3 0.00 0.00 0.00 31 859.2
20260905172051 47 269 13.0 21.7 0.00 0.00 0.00 31 859.2
20260905171846 47 265 13.9 22.6 0.00 0.00 0.00 31 859.1
20260905171448 47 245 13.0 21.7 0.00 0.00 0.00 31 859.1
20260905171347 47 245 13.9 21.7 0.00 0.00 0.00 31 859.2
20260905171248 48 253 13.0 21.7 0.00 0.00 0.00 31 859.2
20260905171048 48 266 13.0 18.2 0.00 0.00 0.00 31 859.2
20260905170843 48 265 13.0 18.2 0.00 0.00 0.00 31 859.2
20260905170641 48 255 14.8 23.5 0.00 0.00 0.00 31 859.1
20260905170441 48 253 15.6 22.6 0.00 0.00 0.00 31 859.1
20260905170340 48 254 16.5 22.6 0.00 0.00 0.00 31 859.1
20260905170241 48 255 17.4 22.6 0.00 0.00 0.00 31 859.1
20260905170040 48 259 14.8 19.1 0.00 0.00 0.00 31 858.9
20260905165837 48 259 13.9 18.2 0.00 0.00 0.00 31 858.9
20260905165639 49 251 14.8 21.7 0.00 0.00 0.00 31 858.9
20260905165438 49 258 14.8 22.6 0.00 0.00 0.00 31 858.9
20260905165324 49 263 13.0 22.6 0.00 0.00 0.00 31 858.9
20260905165225 49 258 13.0 22.6 0.00 0.00 0.00 31 858.8
20260905165024 49 255 12.2 15.6 0.00 0.00 0.00 31 858.8
20260905164821 49 244 13.0 18.2 0.00 0.00 0.00 31 858.8
20260905164622 49 247 13.9 20.9 0.00 0.00 0.00 31 858.8
20260905164421 49 248 16.5 23.5 0.00 0.00 0.00 31 858.8
20260905164321 49 245 15.6 23.5 0.00 0.00 0.00 31 858.8
20260905164221 49 255 14.8 23.5 0.00 0.00 0.00 31 858.7
20260905163818 49 253 12.2 15.6 0.00 0.00 0.00 31 858.7
20260905163619 49 251 13.0 20.0 0.00 0.00 0.00 31 858.6
20260905163419 49 257 14.8 20.0 0.00 0.00 0.00 31 858.6
20260905163318 49 256 14.8 22.6 0.00 0.00 0.00 31 858.6
20260905163218 49 246 15.6 22.6 0.00 0.00 0.00 31 858.6
20260905163018 49 255 14.8 20.0 0.00 0.00 0.00 31 858.6
20260905162815 49 271 13.9 20.9 0.00 0.00 0.00 31 858.6
20260905162615 49 256 13.0 20.9 0.00 0.00 0.00 31 858.7
20260905162416 49 260 11.3 16.5 0.00 0.00 0.00 31 858.7
20260905162315 49 252 11.3 16.5 0.00 0.00 0.00 31 858.7
20260905161812 49 247 11.3 17.4 0.00 0.00 0.00 31 858.6
20260905161613 49 248 12.2 20.9 0.00 0.00 0.00 31 858.6
20260905161311 49 251 13.0 19.1 0.00 0.00 0.00 31 858.5
20260905161012 49 261 11.3 14.8 0.00 0.00 0.00 31 858.5
20260905160808 49 250 13.0 20.0 0.00 0.00 0.00 31 858.6
20260905160609 49 251 12.2 17.4 0.00 0.00 0.00 31 858.5
20260905160308 49 244 14.8 20.9 0.00 0.00 0.00 31 858.4
20260905155805 50 241 14.8 21.7 0.00 0.00 0.00 31 858.5
20260905155407 51 250 14.8 22.6 0.00 0.00 0.00 31 858.4
20260905155306 51 257 13.9 22.6 0.00 0.00 0.00 31 858.3
20260905154802 51 256 12.2 17.4 0.00 0.00 0.00 31 858.1
20260905154604 51 256 12.2 17.4 0.00 0.00 0.00 31 858.1
20260905154302 51 245 13.0 20.9 0.00 0.00 0.00 31 858.2
20260905154204 51 246 13.0 17.4 0.00 0.00 0.00 31 858.2
20260905153759 51 242 12.2 18.2 0.00 0.00 0.00 31 858.4
20260905153601 51 253 13.0 17.4 0.00 0.00 0.00 31 858.3
20260905153401 51 256 13.9 18.2 0.00 0.00 0.00 31 858.2
20260905153259 52 260 12.2 18.2 0.00 0.00 0.00 31 858.2
20260905153201 52 266 11.3 17.4 0.00 0.00 0.00 31 858.2
20260905153000 52 263 12.2 21.7 0.00 0.00 0.00 31 858.2
20260905152756 52 259 12.2 22.6 0.00 0.00 0.00 31 858.2
20260905152557 52 250 14.8 23.5 0.00 0.00 0.00 31 858.2
20260905152357 51 251 13.0 19.1 0.00 0.00 0.00 31 858.2
20260905152256 51 248 13.9 18.2 0.00 0.00 0.00 31 858.2
20260905152157 51 251 13.9 18.2 0.00 0.00 0.00 31 858.2
20260905151956 52 262 11.3 15.6 0.00 0.00 0.00 31 858.1
20260905151753 52 248 13.0 20.0 0.00 0.00 0.00 31 858.1
20260905151554 52 244 13.9 20.0 0.00 0.00 0.00 31 858.1
20260905151354 52 245 12.2 16.5 0.00 0.00 0.00 31 858.1
20260905151253 52 247 11.3 17.4 0.00 0.00 0.00 31 858.1
20260905151155 52 254 11.3 17.4 0.00 0.00 0.00 31 858.1
20260905150954 52 248 13.9 19.1 0.00 0.00 0.00 31 858.1
20260905150750 52 254 12.2 16.5 0.00 0.00 0.00 31 858.1
20260905150551 52 262 12.2 17.4 0.00 0.00 0.00 31 858.1
20260905150351 52 260 11.3 16.5 0.00 0.00 0.00 31 858.1
20260905150250 51 259 11.3 15.6 0.00 0.00 0.00 31 858.1
20260905150151 51 260 10.4 14.8 0.00 0.00 0.00 31 858.1
20260905145951 51 256 10.4 20.9 0.00 0.00 0.00 31 858.1
20260905145747 51 266 10.4 15.6 0.00 0.00 0.00 31 858.2
20260905145548 51 262 12.2 15.6 0.00 0.00 0.00 31 858.2
20260905145348 51 255 11.3 17.4 0.00 0.00 0.00 31 858.1
20260905145246 51 259 11.3 17.4 0.00 0.00 0.00 31 858.1
20260905145148 51 257 11.3 17.4 0.00 0.00 0.00 31 858.2
20260905144947 51 256 10.4 14.8 0.00 0.00 0.00 31 858.2
20260905144743 51 251 10.4 14.8 0.00 0.00 0.00 31 858.2
20260905144546 51 249 10.4 14.8 0.00 0.00 0.00 31 858.3
20260905144347 50 252 8.7 13.9 0.00 0.00 0.00 31 858.3
20260905144243 51 247 8.7 13.9 0.00 0.00 0.00 31 858.3
20260905144148 51 246 9.6 16.5 0.00 0.00 0.00 31 858.3
20260905143946 51 248 10.4 19.1 0.00 0.00 0.00 31 858.4
20260905143740 51 255 13.0 19.1 0.00 0.00 0.00 31 858.2
20260905143541 52 250 13.0 18.2 0.00 0.00 0.00 31 858.1
20260905143341 52 249 12.2 16.5 0.00 0.00 0.00 31 858.2
20260905143240 52 259 10.4 15.6 0.00 0.00 0.00 31 858.2
20260905143140 52 262 11.3 15.6 0.00 0.00 0.00 31 858.2
20260905142940 52 262 11.3 16.5 0.00 0.00 0.00 31 858.3
20260905142736 52 261 9.6 15.6 0.00 0.00 0.00 31 858.2
20260905142537 53 252 10.4 15.6 0.00 0.00 0.00 31 858.2
20260905142337 53 263 9.6 14.8 0.00 0.00 0.00 31 858.2
20260905142236 53 261 9.6 14.8 0.00 0.00 0.00 31 858.2
20260905142138 53 253 10.4 14.8 0.00 0.00 0.00 31 858.2
20260905141721 53 251 10.4 15.6 0.00 0.00 0.00 31 858.2
20260905141519 52 269 9.6 15.6 0.00 0.00 0.00 31 858.3
20260905141319 52 274 8.7 13.0 0.00 0.00 0.00 31 858.3
20260905141218 52 268 9.6 13.0 0.00 0.00 0.00 31 858.3
20260905141119 51 270 10.4 13.9 0.00 0.00 0.00 31 858.4
20260905140919 51 279 9.6 16.5 0.00 0.00 0.00 31 858.4
20260905140715 51 274 11.3 16.5 0.00 0.00 0.00 31 858.4
20260905140518 51 262 13.9 20.0 0.00 0.00 0.00 31 858.3
20260905140317 52 258 15.6 24.3 0.00 0.00 0.00 31 858.3
20260905140215 52 253 14.8 24.3 0.00 0.00 0.00 31 858.3
20260905140117 52 262 13.0 19.1 0.00 0.00 0.00 31 858.3
20260905135918 52 265 11.3 18.2 0.00 0.00 0.00 31 858.3
20260905135712 52 260 10.4 14.8 0.00 0.00 0.00 31 858.3
20260905135513 52 259 10.4 14.8 0.00 0.00 0.00 31 858.2
20260905135313 52 267 10.4 17.4 0.00 0.00 0.00 31 858.3
20260905135212 52 268 10.4 17.4 0.00 0.00 0.00 31 858.3
20260905135113 52 269 10.4 15.6 0.00 0.00 0.00 31 858.3
20260905134913 52 272 9.6 15.6 0.00 0.00 0.00 31 858.4
20260905134709 51 273 9.6 15.6 0.00 0.00 0.00 31 858.4
20260905134511 51 290 7.8 11.3 0.00 0.00 0.00 31 858.5
20260905134310 51 270 7.0 12.2 0.00 0.00 0.00 31 858.6
20260905134209 50 252 7.8 12.2 0.00 0.00 0.00 31 858.5
20260905134110 50 252 7.0 12.2 0.00 0.00 0.00 31 858.5
20260905133910 50 256 6.1 9.6 0.00 0.00 0.00 31 858.5
20260905133706 50 263 7.0 13.0 0.00 0.00 0.00 31 858.5
20260905133507 50 269 7.0 8.7 0.00 0.00 0.00 31 858.5
20260905133307 50 266 7.8 11.3 0.00 0.00 0.00 31 858.5
20260905133206 50 254 8.7 13.0 0.00 0.00 0.00 31 858.5
20260905133107 51 246 10.4 14.8 0.00 0.00 0.00 31 858.6
20260905132907 51 244 10.4 14.8 0.00 0.00 0.00 31 858.6
20260905132703 51 259 7.8 12.2 0.00 0.00 0.00 31 858.6
20260905132504 51 257 8.7 12.2 0.00 0.00 0.00 31 858.5
20260905132203 52 245 9.6 13.9 0.00 0.00 0.00 31 858.5
20260905132104 52 245 9.6 15.6 0.00 0.00 0.00 31 858.5
20260905131903 52 256 8.7 15.6 0.00 0.00 0.00 31 858.5
20260905131700 52 262 11.3 18.2 0.00 0.00 0.00 31 858.5
20260905131501 52 250 12.2 19.1 0.00 0.00 0.00 31 858.4
20260905131300 52 269 7.8 11.3 0.00 0.00 0.00 31 858.5
20260905131200 52 268 7.8 10.4 0.00 0.00 0.00 31 858.5
20260905131100 52 256 8.7 13.9 0.00 0.00 0.00 31 858.5
20260905130900 52 258 9.6 14.8 0.00 0.00 0.00 31 858.5
20260905130657 52 262 10.4 15.6 0.00 0.00 0.00 31 858.5
20260905130458 51 277 10.4 19.1 0.00 0.00 0.00 31 858.5
20260905130259 51 276 8.7 11.3 0.00 0.00 0.00 31 858.7
20260905130157 51 279 8.7 11.3 0.00 0.00 0.00 31 858.7
20260905130058 52 276 9.6 14.8 0.00 0.00 0.00 31 858.8
20260905125859 52 270 12.2 17.4 0.00 0.00 0.00 31 858.6
20260905125654 52 261 11.3 16.5 0.00 0.00 0.00 31 858.2
20260905125459 52 263 10.4 13.9 0.00 0.00 0.00 31 858.0
20260905125258 51 265 9.6 13.9 0.00 0.00 0.00 31 858.0
20260905125154 51 249 10.4 13.9 0.00 0.00 0.00 31 858.0
20260905125055 51 256 9.6 13.9 0.00 0.00 0.00 31 858.0
20260905124855 51 254 11.3 15.6 0.00 0.00 0.00 31 857.9
20260905124651 51 255 10.4 15.6 0.00 0.00 0.00 31 857.9
20260905124452 51 247 11.3 15.6 0.00 0.00 0.00 31 857.9
20260905124252 51 248 10.4 15.6 0.00 0.00 0.00 31 857.9
20260905124151 51 250 10.4 15.6 0.00 0.00 0.00 31 857.9
20260905123852 51 249 12.2 16.5 0.00 0.00 0.00 31 858.0
20260905123648 51 258 10.4 13.9 0.00 0.00 0.00 31 858.1
20260905123451 51 248 9.6 14.8 0.00 0.00 0.00 31 858.1
20260905123250 51 259 8.7 12.2 0.00 0.00 0.00 31 858.2
20260905123148 51 264 9.6 14.8 0.00 0.00 0.00 31 858.3
20260905123048 51 252 11.3 21.7 0.00 0.00 0.00 31 858.4
20260905122849 51 247 11.3 21.7 0.00 0.00 0.00 31 858.4
20260905122645 51 253 11.3 17.4 0.00 0.00 0.00 31 858.3
20260905122447 52 257 9.6 17.4 0.00 0.00 0.00 31 858.3
20260905122247 52 262 7.8 12.2 0.00 0.00 0.00 31 858.3
20260905122145 52 269 7.8 12.2 0.00 0.00 0.00 31 858.3
20260905122046 52 261 7.8 12.2 0.00 0.00 0.00 31 858.2
20260905121846 52 238 10.4 16.5 0.00 0.00 0.00 31 858.2
20260905121642 51 244 10.4 16.5 0.00 0.00 0.00 31 858.3
20260905121444 51 244 10.4 15.6 0.00 0.00 0.00 31 858.3
20260905121244 51 241 12.2 15.6 0.00 0.00 0.00 31 858.3
20260905121142 51 241 12.2 17.4 0.00 0.00 0.00 31 858.3
20260905120842 51 249 11.3 16.5 0.00 0.00 0.00 31 858.3
20260905120639 51 256 10.4 14.8 0.00 0.00 0.00 31 858.2
20260905120440 51 244 10.4 14.8 0.00 0.00 0.00 31 858.1
20260905120240 50 264 8.7 13.9 0.00 0.00 0.00 31 858.2
20260905120139 50 276 8.7 13.9 0.00 0.00 0.00 31 858.2
20260905120040 50 270 8.7 13.9 0.00 0.00 0.00 31 858.2
20260905115636 50 269 9.6 13.0 0.00 0.00 0.00 31 858.2
20260905115438 50 260 10.4 16.5 0.00 0.00 0.00 31 858.2
20260905115238 50 249 13.0 17.4 0.00 0.00 0.00 31 858.2
20260905115136 49 246 12.2 17.4 0.00 0.00 0.00 31 858.2
20260905115038 49 246 11.3 17.4 0.00 0.00 0.00 31 858.1
20260905114633 49 248 11.3 17.4 0.00 0.00 0.00 31 858.1
20260905114435 49 243 12.2 17.4 0.00 0.00 0.00 31 858.2
20260905114234 49 240 11.3 15.6 0.00 0.00 0.00 31 858.2
20260905114120 49 252 10.4 15.6 0.00 0.00 0.00 31 858.2
20260905114020 49 253 10.4 15.6 0.00 0.00 0.00 31 858.2
20260905113820 49 266 9.6 13.9 0.00 0.00 0.00 31 858.2
20260905113617 49 275 8.7 13.9 0.00 0.00 0.00 31 858.2
20260905113419 49 268 9.6 13.0 0.00 0.00 0.00 31 858.2
20260905113219 49 244 10.4 13.9 0.00 0.00 0.00 31 858.3
20260905113117 49 243 9.6 13.9 0.00 0.00 0.00 31 858.3
20260905113018 49 252 8.7 13.9 0.00 0.00 0.00 31 858.3
20260905112817 49 258 9.6 17.4 0.00 0.00 0.00 31 858.3
20260905112614 49 247 11.3 17.4 0.00 0.00 0.00 31 858.2
20260905112415 49 261 9.6 13.9 0.00 0.00 0.00 31 858.2
20260905112215 49 250 11.3 14.8 0.00 0.00 0.00 31 858.2
20260905112149 49 249 12.2 17.4 0.00 0.00 0.00 31 858.2
20260905112113 49 249 12.2 17.4 0.00 0.00 0.00 31 858.2
20260905112015 49 255 12.2 17.4 0.00 0.00 0.00 31 858.2
20260905111814 49 261 10.4 14.8 0.00 0.00 0.00 31 858.2
20260905111611 49 255 9.6 17.4 0.00 0.00 0.00 31 858.2
20260905111212 49 246 13.0 19.1 0.00 0.00 0.00 31 858.1
20260905111111 49 241 13.0 19.1 0.00 0.00 0.00 31 858.1
20260905111011 49 250 11.3 19.1 0.00 0.00 0.00 31 858.1
20260905110811 48 255 8.7 13.9 0.00 0.00 0.00 31 858.1
20260905110607 48 253 11.3 18.2 0.00 0.00 0.00 31 858.1
20260905110409 48 265 10.4 18.2 0.00 0.00 0.00 31 858.1
20260905110209 48 254 12.2 16.5 0.00 0.00 0.00 31 858.1
20260905110107 48 237 13.9 19.1 0.00 0.00 0.00 31 858.1
20260905110008 48 234 11.3 19.1 0.00 0.00 0.00 31 858.1
20260905105809 48 252 8.7 10.4 0.00 0.00 0.00 31 858.2
20260905105604 48 263 8.7 12.2 0.00 0.00 0.00 31 858.2
20260905105405 48 274 7.0 11.3 0.00 0.00 0.00 31 858.2
20260905105205 48 254 10.4 17.4 0.00 0.00 0.00 31 858.1
20260905105104 48 242 11.3 17.4 0.00 0.00 0.00 31 858.1
20260905105005 48 237 11.3 17.4 0.00 0.00 0.00 31 858.1
20260905104805 48 242 10.4 17.4 0.00 0.00 0.00 31 858.0
20260905104601 47 228 13.9 19.1 0.00 0.00 0.00 31 858.1
20260905104402 47 229 12.2 20.9 0.00 0.00 0.00 31 858.1
20260905104202 47 248 9.6 15.6 0.00 0.00 0.00 31 858.2
20260905104101 47 248 10.4 15.6 0.00 0.00 0.00 31 858.1
20260905104002 47 248 9.6 13.9 0.00 0.00 0.00 31 858.1
20260905103802 47 261 7.0 10.4 0.00 0.00 0.00 31 858.2
20260905103558 47 252 7.8 10.4 0.00 0.00 0.00 31 858.1
20260905103400 47 246 8.7 12.2 0.00 0.00 0.00 31 858.1
20260905103200 47 250 8.7 17.4 0.00 0.00 0.00 31 858.1
20260905103058 47 249 10.4 17.4 0.00 0.00 0.00 31 858.1
20260905102959 47 241 11.3 17.4 0.00 0.00 0.00 31 858.1
20260905102759 47 234 10.4 13.9 0.00 0.00 0.00 31 857.9
20260905102555 47 236 8.7 16.5 0.00 0.00 0.00 31 857.9
20260905102356 47 245 9.6 14.8 0.00 0.00 0.00 31 857.8
20260905102156 47 243 10.4 14.8 0.00 0.00 0.00 31 857.9
20260905102055 47 249 10.4 17.4 0.00 0.00 0.00 31 857.9
20260905101956 47 251 10.4 17.4 0.00 0.00 0.00 31 857.8
20260905101757 47 240 11.3 16.5 0.00 0.00 0.00 31 857.8
20260905101552 47 238 10.4 16.5 0.00 0.00 0.00 31 857.9
20260905101353 47 252 8.7 14.8 0.00 0.00 0.00 31 857.9
20260905101154 47 245 9.6 14.8 0.00 0.00 0.00 31 857.8
20260905101052 46 246 9.6 14.8 0.00 0.00 0.00 31 857.8
20260905100953 46 246 8.7 14.8 0.00 0.00 0.00 31 857.8
20260905100753 46 233 10.4 14.8 0.00 0.00 0.00 31 857.9
20260905100549 46 238 9.6 20.0 0.00 0.00 0.00 31 857.9
20260905100350 46 231 9.6 14.8 0.00 0.00 0.00 31 858.0
20260905100150 46 234 10.4 14.8 0.00 0.00 0.00 31 858.1
20260905100049 46 232 9.6 14.8 0.00 0.00 0.00 31 858.2
20260905095949 46 237 9.6 14.8 0.00 0.00 0.00 31 858.2
20260905095749 46 240 8.7 13.0 0.00 0.00 0.00 31 858.2
20260905095546 46 254 7.0 13.0 0.00 0.00 0.00 31 858.2
20260905095347 46 249 7.0 13.0 0.00 0.00 0.00 31 858.2
20260905095148 46 230 7.8 13.0 0.00 0.00 0.00 31 858.2
20260905095046 46 237 7.0 13.0 0.00 0.00 0.00 31 858.2
20260905094947 46 249 6.1 13.0 0.00 0.00 0.00 31 858.2
20260905094747 46 251 6.1 11.3 0.00 0.00 0.00 31 858.2
20260905094543 46 236 7.0 11.3 0.00 0.00 0.00 31 858.2
20260905094343 46 252 4.3 7.8 0.00 0.00 0.00 31 858.3
20260905094143 46 258 5.2 8.7 0.00 0.00 0.00 31 858.2
20260905094043 46 261 5.2 8.7 0.00 0.00 0.00 31 858.2
20260905093944 46 262 5.2 8.7 0.00 0.00 0.00 31 858.1
20260905093743 46 237 7.8 12.2 0.00 0.00 0.00 31 858.1
20260905093540 46 241 7.8 12.2 0.00 0.00 0.00 31 858.1
20260905093341 46 255 5.2 10.4 0.00 0.00 0.00 31 858.2
20260905093141 46 256 5.2 10.4 0.00 0.00 0.00 31 858.1
20260905093040 46 263 5.2 7.8 0.00 0.00 0.00 31 858.1
20260905092941 46 259 5.2 10.4 0.00 0.00 0.00 31 858.1
20260905092740 46 267 5.2 10.4 0.00 0.00 0.00 31 858.1
20260905092537 46 270 5.2 8.7 0.00 0.00 0.00 31 858.0
20260905092338 46 259 7.0 13.0 0.00 0.00 0.00 31 858.1
20260905092137 46 257 6.1 12.2 0.00 0.00 0.00 31 858.1
20260905092037 46 264 6.1 10.4 0.00 0.00 0.00 31 858.1
20260905091937 46 259 7.8 10.4 0.00 0.00 0.00 31 858.0
20260905091737 46 248 10.4 17.4 0.00 0.00 0.00 31 857.9
20260905091534 46 267 10.4 17.4 0.00 0.00 0.00 31 857.9
20260905091335 46 272 7.8 15.6 0.00 0.00 0.00 31 857.9
20260905091134 46 256 9.6 15.6 0.00 0.00 0.00 31 857.9
20260905091034 46 250 10.4 14.8 0.00 0.00 0.00 31 857.9
20260905090934 46 255 9.6 15.6 0.00 0.00 0.00 31 857.9
20260905090735 46 254 9.6 15.6 0.00 0.00 0.00 31 857.8
20260905090517 45 258 8.7 12.2 0.00 0.00 0.00 31 857.7
20260905090318 45 251 8.7 14.8 0.00 0.00 0.00 31 857.8
20260905090119 45 248 7.8 13.0 0.00 0.00 0.00 31 858.0
20260905090017 45 243 7.0 11.3 0.00 0.00 0.00 31 858.1
20260905085919 45 247 6.1 10.4 0.00 0.00 0.00 31 858.2
20260905085514 45 250 8.7 13.0 0.00 0.00 0.00 31 858.2
20260905085315 45 264 7.8 13.0 0.00 0.00 0.00 31 858.2
20260905085117 45 250 7.0 9.6 0.00 0.00 0.00 31 858.2
20260905085014 45 253 7.0 9.6 0.00 0.00 0.00 31 858.2
20260905084915 45 267 7.0 9.6 0.00 0.00 0.00 31 858.2
20260905084715 45 272 7.0 13.9 0.00 0.00 0.00 31 858.2
20260905084511 45 254 7.8 13.9 0.00 0.00 0.00 31 858.2
20260905084312 45 255 7.0 9.6 0.00 0.00 0.00 31 858.1
20260905084259 44 267 7.0 12.2 0.00 0.00 0.00 31 858.1
20260905084113 44 264 7.0 9.6 0.00 0.00 0.00 31 858.1
20260905084011 44 267 7.0 12.2 0.00 0.00 0.00 31 858.1
20260905083912 44 262 7.8 12.2 0.00 0.00 0.00 31 858.1
20260905083712 44 241 10.4 15.6 0.00 0.00 0.00 31 858.0
20260905083657 45 243 12.2 17.4 0.00 0.00 0.00 31 858.0
20260905083508 45 243 12.2 17.4 0.00 0.00 0.00 31 858.0
20260905083308 45 243 11.3 14.8 0.00 0.00 0.00 31 857.9
20260905083108 45 241 12.2 17.4 0.00 0.00 0.00 31 857.8
20260905083008 45 245 11.3 17.4 0.00 0.00 0.00 31 857.8
20260905082708 45 241 9.6 16.5 0.00 0.00 0.00 31 857.6
20260905082505 45 230 8.7 13.9 0.00 0.00 0.00 31 857.5
20260905082307 45 234 9.6 14.8 0.00 0.00 0.00 31 857.7
20260905082105 45 229 10.4 15.6 0.00 0.00 0.00 31 857.7
20260905082005 45 227 10.4 15.6 0.00 0.00 0.00 31 857.8
20260905081706 44 236 10.4 13.9 0.00 0.00 0.00 31 857.7
20260905081502 44 241 10.4 14.8 0.00 0.00 0.00 31 857.7
20260905081303 44 243 9.6 15.6 0.00 0.00 0.00 31 857.7
20260905081104 44 233 9.6 15.6 0.00 0.00 0.00 31 857.7
20260905081002 44 232 10.4 15.6 0.00 0.00 0.00 31 857.7
20260905080702 44 232 9.6 13.9 0.00 0.00 0.00 31 857.8
20260905080459 44 236 8.7 13.9 0.00 0.00 0.00 31 857.8
20260905080300 44 236 10.4 18.2 0.00 0.00 0.00 31 857.9
20260905080100 44 231 12.2 18.2 0.00 0.00 0.00 31 858.0
20260905075959 44 237 12.2 17.4 0.00 0.00 0.00 31 858.0
20260905075859 44 243 11.3 17.4 0.00 0.00 0.00 31 858.1
20260905075700 44 249 10.4 16.5 0.00 0.00 0.00 31 857.9
20260905075456 44 242 11.3 16.5 0.00 0.00 0.00 31 857.9
20260905075258 44 248 11.3 20.0 0.00 0.00 0.00 31 857.9
20260905075057 44 246 13.0 19.1 0.00 0.00 0.00 31 858.0
20260905074956 44 244 13.0 19.1 0.00 0.00 0.00 31 858.0
20260905074657 44 254 13.9 19.1 0.00 0.00 0.00 31 857.9
20260905074453 44 253 13.9 20.0 0.00 0.00 0.00 31 858.0
20260905074253 45 264 10.4 17.4 0.00 0.00 0.00 31 858.0
20260905074054 45 260 12.2 19.1 0.00 0.00 0.00 31 858.0
20260905073953 45 261 12.2 19.1 0.00 0.00 0.00 31 858.0
20260905073854 45 269 11.3 19.1 0.00 0.00 0.00 31 858.0
20260905073655 45 269 8.7 11.3 0.00 0.00 0.00 31 858.0
20260905073450 45 270 9.6 13.0 0.00 0.00 0.00 31 858.0
20260905073251 45 271 12.2 18.2 0.00 0.00 0.00 31 857.8
20260905072950 45 268 12.2 21.7 0.00 0.00 0.00 31 857.4
20260905072852 45 276 11.3 17.4 0.00 0.00 0.00 31 857.4
20260905072650 45 267 12.2 15.6 0.00 0.00 0.00 31 857.3
20260905072447 45 261 13.0 20.9 0.00 0.00 0.00 31 857.2
20260905072248 45 249 13.9 20.9 0.00 0.00 0.00 31 857.3
20260905072047 45 258 12.2 15.6 0.00 0.00 0.00 31 857.5
20260905071947 45 264 12.2 16.5 0.00 0.00 0.00 31 857.4
20260905071847 45 267 11.3 16.5 0.00 0.00 0.00 31 857.4
20260905071647 45 248 13.9 17.4 0.00 0.00 0.00 31 857.4
20260905071443 45 232 13.9 19.1 0.00 0.00 0.00 31 857.3
20260905071245 45 236 13.0 17.4 0.00 0.00 0.00 31 857.3
20260905071045 45 244 13.0 17.4 0.00 0.00 0.00 31 857.4
20260905070943 45 238 13.0 17.4 0.00 0.00 0.00 31 857.3
20260905070844 45 231 12.2 17.4 0.00 0.00 0.00 31 857.3
20260905070644 45 238 10.4 15.6 0.00 0.00 0.00 31 857.2
20260905070440 45 238 11.3 16.5 0.00 0.00 0.00 31 857.2
20260905070241 45 240 9.6 13.0 0.00 0.00 0.00 31 857.2
20260905070041 45 242 8.7 12.2 0.00 0.00 0.00 31 857.1
20260905065940 45 245 8.7 12.2 0.00 0.00 0.00 31 857.1
20260905065841 45 243 9.6 13.9 0.00 0.00 0.00 31 857.1
20260905065641 45 237 10.4 15.6 0.00 0.00 0.00 31 857.2
20260905065441 45 240 9.6 16.5 0.00 0.00 0.00 31 857.2
20260905065238 45 239 11.3 16.5 0.00 0.00 0.00 31 857.1
20260905065038 45 232 11.3 16.5 0.00 0.00 0.00 31 857.2
20260905064937 45 225 10.4 13.9 0.00 0.00 0.00 31 857.2
20260905064838 45 233 10.4 13.9 0.00 0.00 0.00 31 857.2
20260905064639 45 244 9.6 12.2 0.00 0.00 0.00 31 857.2
20260905064434 45 233 9.6 15.6 0.00 0.00 0.00 31 857.1
20260905064232 45 232 11.3 15.6 0.00 0.00 0.00 31 857.1
20260905064032 45 237 10.4 14.8 0.00 0.00 0.00 31 857.1
20260905063931 45 239 10.4 14.8 0.00 0.00 0.00 31 857.1
20260905063831 45 242 11.3 14.8 0.00 0.00 0.00 31 857.1
20260905063632 45 254 9.6 13.9 0.00 0.00 0.00 31 857.1
20260905063432 45 270 8.7 14.8 0.00 0.00 0.00 31 857.2
20260905063228 45 243 10.4 14.8 0.00 0.00 0.00 31 857.2
20260905063028 45 243 11.3 17.4 0.00 0.00 0.00 31 857.3
20260905062915 45 246 12.2 17.4 0.00 0.00 0.00 31 857.4
20260905062816 45 239 11.3 14.8 0.00 0.00 0.00 31 857.4
20260905062616 45 248 9.6 14.8 0.00 0.00 0.00 31 857.5
20260905062412 45 261 10.4 13.9 0.00 0.00 0.00 31 857.6
20260905062013 45 266 12.2 16.5 0.00 0.00 0.00 31 857.4
20260905061912 45 264 12.2 17.4 0.00 0.00 0.00 31 857.4
20260905061812 45 262 11.3 17.4 0.00 0.00 0.00 31 857.4
20260905061622 46 267 10.4 15.6 0.00 0.00 0.00 31 857.4
20260905061409 46 258 11.3 15.6 0.00 0.00 0.00 31 857.4
20260905061210 46 262 11.3 15.6 0.00 0.00 0.00 31 857.4
20260905061010 46 265 10.4 15.6 0.00 0.00 0.00 31 857.4
20260905060909 46 266 10.4 13.9 0.00 0.00 0.00 31 857.4
20260905060810 46 260 11.3 15.6 0.00 0.00 0.00 31 857.4
20260905060609 45 247 12.2 15.6 0.00 0.00 0.00 31 857.6
20260905060406 45 253 12.2 15.6 0.00 0.00 0.00 31 857.7
20260905060207 45 246 13.0 20.0 0.00 0.00 0.00 31 857.7
20260905060008 45 265 12.2 20.0 0.00 0.00 0.00 31 857.7
20260905055906 45 272 10.4 15.6 0.00 0.00 0.00 31 857.7
20260905055808 45 274 9.6 14.8 0.00 0.00 0.00 31 857.7
20260905055607 46 258 10.4 13.0 0.00 0.00 0.00 31 857.5
20260905055403 46 263 12.2 15.6 0.00 0.00 0.00 31 857.3
20260905055204 46 266 13.9 20.0 0.00 0.00 0.00 31 857.1
20260905055004 46 259 16.5 24.3 0.00 0.00 0.00 31 857.0
20260905054903 46 263 15.6 24.3 0.00 0.00 0.00 31 857.0
20260905054803 46 261 13.9 21.7 0.00 0.00 0.00 31 857.1
20260905054605 46 259 13.0 18.2 0.00 0.00 0.00 31 857.1
20260905054359 46 265 12.2 18.2 0.00 0.00 0.00 31 857.2
20260905054201 46 267 15.6 24.3 0.00 0.00 0.00 31 857.2
20260905054000 46 269 15.6 24.3 0.00 0.00 0.00 31 857.2
20260905053859 46 276 14.8 20.9 0.00 0.00 0.00 31 857.2
20260905053800 46 269 14.8 20.9 0.00 0.00 0.00 31 857.1
20260905053600 46 269 13.9 20.9 0.00 0.00 0.00 31 857.1
20260905053355 46 270 14.8 20.0 0.00 0.00 0.00 31 857.0
20260905053157 46 272 16.5 20.9 0.00 0.00 0.00 31 856.9
20260905052855 46 276 13.0 19.1 0.00 0.00 0.00 31 856.8
20260905052757 46 278 13.0 14.8 0.00 0.00 0.00 31 856.8
20260905052557 46 280 13.0 16.5 0.00 0.00 0.00 31 856.8
20260905052353 46 276 14.8 20.9 0.00 0.00 0.00 31 856.9
20260905052153 46 269 15.6 20.9 0.00 0.00 0.00 31 856.9
20260905051954 46 263 13.9 20.9 0.00 0.00 0.00 31 856.8
20260905051852 46 263 12.2 15.6 0.00 0.00 0.00 31 856.8
20260905051753 46 269 12.2 16.5 0.00 0.00 0.00 31 856.8
20260905051553 46 279 13.9 17.4 0.00 0.00 0.00 31 856.7
20260905051349 46 265 13.0 17.4 0.00 0.00 0.00 31 856.7
20260905051151 46 268 12.2 17.4 0.00 0.00 0.00 31 856.6
20260905050950 46 267 12.2 18.2 0.00 0.00 0.00 31 856.8
20260905050849 46 262 13.0 18.2 0.00 0.00 0.00 31 856.9
20260905050750 46 263 13.0 18.2 0.00 0.00 0.00 31 857.0
20260905050551 46 263 15.6 24.3 0.00 0.00 0.00 31 857.0
20260905050346 46 254 19.1 24.3 0.00 0.00 0.00 31 857.0
20260905050148 46 255 17.4 26.1 0.00 0.00 0.00 31 857.0
20260905045846 46 264 15.6 22.6 0.00 0.00 0.00 31 857.0
20260905045758 46 265 15.6 22.6 0.00 0.00 0.00 31 856.9
20260905045548 46 270 13.9 19.1 0.00 0.00 0.00 31 856.8
20260905045343 46 264 13.0 19.1 0.00 0.00 0.00 31 856.7
20260905044945 46 275 12.2 20.0 0.00 0.00 0.00 31 856.7
20260905044844 46 273 12.2 16.5 0.00 0.00 0.00 31 856.6
20260905044745 46 269 12.2 16.5 0.00 0.00 0.00 31 856.7
20260905044341 46 271 11.3 15.6 0.00 0.00 0.00 31 856.8
20260905044141 46 270 12.2 17.4 0.00 0.00 0.00 31 856.7
20260905043940 46 268 10.4 13.9 0.00 0.00 0.00 31 856.8
20260905043840 46 264 10.4 12.2 0.00 0.00 0.00 31 856.8
20260905043739 46 275 10.4 13.9 0.00 0.00 0.00 31 856.8
20260905043540 46 284 11.3 16.5 0.00 0.00 0.00 31 856.9
20260905043336 46 274 11.3 14.8 0.00 0.00 0.00 31 856.9
20260905043137 46 280 10.4 14.8 0.00 0.00 0.00 31 856.8
20260905042937 46 279 12.2 15.6 0.00 0.00 0.00 31 856.8
20260905042836 47 268 13.9 20.9 0.00 0.00 0.00 31 856.8
20260905042737 47 275 13.0 20.9 0.00 0.00 0.00 31 856.8
20260905042537 47 277 13.0 18.2 0.00 0.00 0.00 31 856.7
20260905042333 48 262 15.6 20.9 0.00 0.00 0.00 31 856.7
20260905041833 48 272 15.6 25.2 0.00 0.00 0.00 31 856.6
20260905041734 48 271 15.6 25.2 0.00 0.00 0.00 31 856.7
20260905041534 49 270 14.8 19.1 0.00 0.00 0.00 31 856.6
20260905041330 48 269 12.2 16.5 0.00 0.00 0.00 31 856.5
20260905041131 48 273 12.2 19.1 0.00 0.00 0.00 31 856.5
20260905040931 48 272 13.0 19.1 0.00 0.00 0.00 31 856.4
20260905040830 48 266 13.0 17.4 0.00 0.00 0.00 31 856.4
20260905040731 48 262 13.9 19.1 0.00 0.00 0.00 31 856.4
20260905040531 48 259 12.2 19.1 0.00 0.00 0.00 31 856.3
20260905040327 48 259 12.2 17.4 0.00 0.00 0.00 31 856.3
20260905040129 48 261 11.3 16.5 0.00 0.00 0.00 31 856.3
20260905035929 48 263 12.2 15.6 0.00 0.00 0.00 31 856.4
20260905035827 48 266 12.2 15.6 0.00 0.00 0.00 31 856.4
20260905035727 48 264 12.2 15.6 0.00 0.00 0.00 31 856.4
20260905035527 48 263 12.2 17.4 0.00 0.00 0.00 31 856.3
20260905035311 48 260 12.2 19.1 0.00 0.00 0.00 31 856.3
20260905035112 48 261 11.3 19.1 0.00 0.00 0.00 31 856.3
20260905034911 48 266 9.6 12.2 0.00 0.00 0.00 31 856.3
20260905034811 48 261 10.4 12.2 0.00 0.00 0.00 31 856.3
20260905034711 48 257 9.6 13.9 0.00 0.00 0.00 31 856.4
20260905034511 48 263 10.4 14.8 0.00 0.00 0.00 31 856.4
20260905034307 48 252 11.3 14.8 0.00 0.00 0.00 31 856.4
20260905034109 48 252 11.3 14.8 0.00 0.00 0.00 31 856.3
20260905033807 47 265 11.3 20.0 0.00 0.00 0.00 31 856.2
20260905033709 47 271 9.6 12.2 0.00 0.00 0.00 31 856.3
20260905033509 47 271 8.7 12.2 0.00 0.00 0.00 31 856.3
20260905033304 47 269 10.4 17.4 0.00 0.00 0.00 31 856.3
20260905032906 47 270 10.4 15.6 0.00 0.00 0.00 31 856.5
20260905032804 47 272 10.4 15.6 0.00 0.00 0.00 31 856.5
20260905032705 47 265 11.3 15.6 0.00 0.00 0.00 31 856.6
20260905032506 47 267 11.3 15.6 0.00 0.00 0.00 31 856.7
20260905032305 47 278 12.2 18.2 0.00 0.00 0.00 31 856.7
20260905032102 47 270 14.8 20.0 0.00 0.00 0.00 31 856.6
20260905031902 47 259 14.8 20.0 0.00 0.00 0.00 31 856.6
20260905031802 47 265 14.8 19.1 0.00 0.00 0.00 31 856.6
20260905031702 47 265 14.8 19.1 0.00 0.00 0.00 31 856.6
20260905031502 47 271 13.9 16.5 0.00 0.00 0.00 31 856.6
20260905031259 47 267 14.8 20.9 0.00 0.00 0.00 31 856.5
20260905031059 47 270 13.0 20.9 0.00 0.00 0.00 31 856.5
20260905030959 47 267 11.3 16.5 0.00 0.00 0.00 31 856.5
20260905030900 47 268 12.2 16.5 0.00 0.00 0.00 31 856.5
20260905030758 47 267 11.3 16.5 0.00 0.00 0.00 31 856.5
20260905030659 47 267 10.4 15.6 0.00 0.00 0.00 31 856.5
20260905030500 47 261 11.3 16.5 0.00 0.00 0.00 31 856.6
20260905030255 47 275 11.3 14.8 0.00 0.00 0.00 31 856.5
20260905030057 47 270 11.3 17.4 0.00 0.00 0.00 31 856.5
20260905025857 47 269 11.3 17.4 0.00 0.00 0.00 31 856.4
20260905025755 47 273 10.4 15.6 0.00 0.00 0.00 31 856.4
20260905025656 47 275 12.2 17.4 0.00 0.00 0.00 31 856.4
20260905025456 47 278 13.0 18.2 0.00 0.00 0.00 31 856.4
20260905025252 47 277 10.4 14.8 0.00 0.00 0.00 31 856.5
20260905025053 47 282 9.6 14.8 0.00 0.00 0.00 31 856.6
20260905024853 47 279 8.7 13.9 0.00 0.00 0.00 31 856.5
20260905024752 47 285 8.7 13.9 0.00 0.00 0.00 31 856.5
20260905024654 47 287 8.7 13.9 0.00 0.00 0.00 31 856.5
20260905024453 47 278 10.4 15.6 0.00 0.00 0.00 31 856.4
20260905024249 47 281 13.9 20.0 0.00 0.00 0.00 31 856.3
20260905024051 47 290 10.4 15.6 0.00 0.00 0.00 31 856.4
20260905023851 47 291 10.4 14.8 0.00 0.00 0.00 31 856.5
20260905023749 47 285 10.4 14.8 0.00 0.00 0.00 31 856.5
20260905023650 47 286 11.3 21.7 0.00 0.00 0.00 31 856.6
20260905023450 47 271 13.9 21.7 0.00 0.00 0.00 31 856.7
20260905023246 47 284 13.0 19.1 0.00 0.00 0.00 31 856.7
20260905023047 47 292 11.3 16.5 0.00 0.00 0.00 31 856.6
20260905022847 47 276 15.6 24.3 0.00 0.00 0.00 31 856.7
20260905022746 47 273 16.5 24.3 0.00 0.00 0.00 31 856.7
20260905022647 47 276 16.5 24.3 0.00 0.00 0.00 31 856.7
20260905022447 47 285 15.6 18.2 0.00 0.00 0.00 31 856.8
20260905022243 47 290 13.9 19.1 0.00 0.00 0.00 31 856.7
20260905022044 47 285 11.3 18.2 0.00 0.00 0.00 31 856.5
20260905021844 47 280 12.2 18.2 0.00 0.00 0.00 31 856.6
20260905021743 47 288 11.3 13.9 0.00 0.00 0.00 31 856.6
20260905021643 47 292 12.2 16.5 0.00 0.00 0.00 31 856.6
20260905021443 47 300 13.0 16.5 0.00 0.00 0.00 31 856.7
20260905021240 47 291 12.2 21.7 0.00 0.00 0.00 31 856.7
20260905021041 47 295 13.0 16.5 0.00 0.00 0.00 31 856.7
20260905020841 47 290 12.2 16.5 0.00 0.00 0.00 31 856.7
20260905020740 47 288 11.3 15.6 0.00 0.00 0.00 31 856.7
20260905020641 47 289 10.4 15.6 0.00 0.00 0.00 31 856.7
20260905020441 47 289 11.3 15.6 0.00 0.00 0.00 31 856.7
20260905020237 47 281 13.9 21.7 0.00 0.00 0.00 31 856.6
20260905020038 47 284 10.4 15.6 0.00 0.00 0.00 31 856.6
20260905015838 47 296 12.2 19.1 0.00 0.00 0.00 31 856.7
20260905015737 47 293 12.2 19.1 0.00 0.00 0.00 31 856.7
20260905015638 47 301 9.6 13.9 0.00 0.00 0.00 31 856.7
20260905015438 47 297 10.4 14.8 0.00 0.00 0.00 31 856.8
20260905015234 47 284 11.3 15.6 0.00 0.00 0.00 31 856.8
20260905015034 47 288 11.3 15.6 0.00 0.00 0.00 31 856.7
20260905014835 47 282 13.9 20.9 0.00 0.00 0.00 31 856.7
20260905014734 48 293 13.9 20.9 0.00 0.00 0.00 31 856.6
20260905014634 48 300 13.0 19.1 0.00 0.00 0.00 31 856.6
20260905014435 48 284 12.2 18.2 0.00 0.00 0.00 31 856.6
20260905014231 48 280 11.3 15.6 0.00 0.00 0.00 31 856.6
20260905014033 48 289 10.4 14.8 0.00 0.00 0.00 31 856.6
20260905013834 48 290 9.6 12.2 0.00 0.00 0.00 31 856.6
20260905013731 48 290 8.7 12.2 0.00 0.00 0.00 31 856.6
20260905013633 48 282 8.7 12.2 0.00 0.00 0.00 31 856.6
20260905013432 48 285 8.7 12.2 0.00 0.00 0.00 31 856.6
20260905013228 49 295 7.8 11.3 0.00 0.00 0.00 31 856.6
20260905013028 49 297 7.0 11.3 0.00 0.00 0.00 31 856.6
20260905012830 49 290 7.8 11.3 0.00 0.00 0.00 31 856.6
20260905012728 49 286 8.7 11.3 0.00 0.00 0.00 31 856.6
20260905012629 49 272 8.7 12.2 0.00 0.00 0.00 31 856.6
20260905012429 49 275 7.8 12.2 0.00 0.00 0.00 31 856.6
20260905012225 49 290 7.0 10.4 0.00 0.00 0.00 31 856.7
20260905012025 49 283 7.8 10.4 0.00 0.00 0.00 31 856.6
20260905011825 49 269 8.7 12.2 0.00 0.00 0.00 31 856.5
20260905011712 49 264 8.7 13.0 0.00 0.00 0.00 31 856.6
20260905011613 49 261 10.4 13.0 0.00 0.00 0.00 31 856.6
20260905011414 49 268 9.6 13.0 0.00 0.00 0.00 31 856.6
20260905011209 50 293 7.8 9.6 0.00 0.00 0.00 31 856.6
20260905011010 50 290 8.7 13.9 0.00 0.00 0.00 31 856.6
20260905010709 50 290 7.0 10.4 0.00 0.00 0.00 31 856.5
20260905010610 50 308 6.1 9.6 0.00 0.00 0.00 31 856.4
20260905010410 50 305 7.0 12.2 0.00 0.00 0.00 31 856.3
20260905010206 50 277 7.0 12.2 0.00 0.00 0.00 31 856.3
20260905010007 51 286 7.8 10.4 0.00 0.00 0.00 31 856.3
20260905005706 51 321 7.0 8.7 0.00 0.00 0.00 31 856.3
20260905005607 51 317 6.1 8.7 0.00 0.00 0.00 31 856.3
20260905005407 51 291 5.2 8.7 0.00 0.00 0.00 31 856.3
20260905005202 51 283 6.1 8.7 0.00 0.00 0.00 31 856.2
20260905005004 51 279 7.0 10.4 0.00 0.00 0.00 31 856.1
20260905004803 51 297 6.1 8.7 0.00 0.00 0.00 31 856.1
20260905004702 51 295 6.1 7.0 0.00 0.00 0.00 31 856.1
20260905004404 52 284 6.1 7.8 0.00 0.00 0.00 31 856.2
20260905004159 52 277 7.0 7.8 0.00 0.00 0.00 31 856.1
20260905003801 52 289 6.1 8.7 0.00 0.00 0.00 31 856.0
20260905003659 52 281 6.1 8.7 0.00 0.00 0.00 31 856.0
20260905003600 52 273 6.1 8.7 0.00 0.00 0.00 31 856.0
20260905003157 52 276 6.1 8.7 0.00 0.00 0.00 31 855.9
20260905002958 52 265 6.1 8.7 0.00 0.00 0.00 31 855.9
20260905002758 52 262 7.0 9.6 0.00 0.00 0.00 31 856.0
20260905002657 53 266 7.0 9.6 0.00 0.00 0.00 31 856.0
20260905002558 53 270 7.0 9.6 0.00 0.00 0.00 31 856.0
20260905002358 53 280 6.1 8.7 0.00 0.00 0.00 31 855.9
20260905002154 53 260 7.0 10.4 0.00 0.00 0.00 31 855.9
20260905001954 53 262 7.0 10.4 0.00 0.00 0.00 31 855.9
20260905001755 54 272 7.0 10.4 0.00 0.00 0.00 31 855.9
20260905001654 54 273 7.0 8.7 0.00 0.00 0.00 31 855.9
20260905001555 54 272 6.1 8.7 0.00 0.00 0.00 31 855.9
20260905001355 55 266 7.0 8.7 0.00 0.00 0.00 31 855.8
20260905001150 55 270 7.0 10.4 0.00 0.00 0.00 31 855.8
20260905000952 56 276 7.0 10.4 0.00 0.00 0.00 31 855.7
20260905000751 56 272 7.0 9.6 0.00 0.00 0.00 31 855.7
20260905000651 56 274 7.0 9.6 0.00 0.00 0.00 31 855.6
20260905000552 56 277 7.0 8.7 0.00 0.00 0.00 31 855.6
20260905000148 57 271 7.8 12.2 0.00 0.00 0.00 31 855.5
20260904235949 57 258 7.0 9.6 0.00 0.00 0.00 31 855.5
20260904235748 58 253 7.0 10.4 0.00 0.00 0.00 31 855.5
20260904235648 58 256 7.8 12.2 0.00 0.00 0.00 31 855.5
20260904235548 58 255 8.7 12.2 0.00 0.00 0.00 31 855.4
20260904235349 58 267 9.6 16.5 0.00 0.00 0.00 31 855.4
20260904235145 58 258 12.2 21.7 0.00 0.00 0.00 31 855.3
20260904234946 57 262 11.3 17.4 0.00 0.00 0.00 31 855.3
20260904234747 57 256 11.3 14.8 0.00 0.00 0.00 31 855.2
20260904234645 57 246 12.2 18.2 0.00 0.00 0.00 31 855.2
20260904234546 57 245 13.0 18.2 0.00 0.00 0.00 31 855.1
20260904234345 57 240 10.4 15.6 0.00 0.00 0.00 31 855.2
20260904234142 57 232 11.3 14.8 0.00 0.00 0.00 31 855.1
20260904233942 57 228 11.3 17.4 0.00 0.00 0.00 31 855.1
20260904233742 57 232 10.4 17.4 0.00 0.00 0.00 31 855.0
20260904233642 57 231 10.4 15.6 0.00 0.00 0.00 31 855.0
20260904233541 57 235 10.4 14.8 0.00 0.00 0.00 31 855.0
20260904233341 57 231 10.4 13.9 0.00 0.00 0.00 31 855.0
20260904233138 57 226 10.4 15.6 0.00 0.00 0.00 31 855.0
20260904232940 57 232 9.6 13.0 0.00 0.00 0.00 31 855.0
20260904232740 57 233 10.4 15.6 0.00 0.00 0.00 31 855.0
20260904232638 57 236 10.4 15.6 0.00 0.00 0.00 31 854.9
20260904232540 57 241 10.4 15.6 0.00 0.00 0.00 31 854.9
20260904232339 57 231 10.4 15.6 0.00 0.00 0.00 31 854.8
20260904232135 57 224 11.3 13.9 0.00 0.00 0.00 31 854.8
20260904231937 57 223 10.4 17.4 0.00 0.00 0.00 31 854.8
20260904231736 57 229 12.2 20.9 0.00 0.00 0.00 31 854.8
20260904231635 58 231 11.3 20.9 0.00 0.00 0.00 31 854.8
20260904231536 58 227 11.3 15.6 0.00 0.00 0.00 31 854.8
20260904231336 58 228 12.2 15.6 0.00 0.00 0.00 31 854.8
20260904231132 58 233 12.2 18.2 0.00 0.00 0.00 31 854.7
20260904230933 58 228 13.0 18.2 0.00 0.00 0.00 31 854.8
20260904230733 58 230 12.2 19.1 0.00 0.00 0.00 31 854.8
20260904230632 58 225 12.2 19.1 0.00 0.00 0.00 31 854.8
20260904230533 58 227 13.0 19.1 0.00 0.00 0.00 31 854.8
20260904230333 58 222 12.2 16.5 0.00 0.00 0.00 31 854.8
20260904230129 58 224 12.2 15.6 0.00 0.00 0.00 31 854.8
20260904225930 58 222 12.2 19.1 0.00 0.00 0.00 31 854.8
20260904225730 58 228 13.0 17.4 0.00 0.00 0.00 31 854.8
20260904225629 58 226 12.2 17.4 0.00 0.00 0.00 31 854.8
20260904225530 58 228 12.2 18.2 0.00 0.00 0.00 31 854.8
20260904225330 58 229 13.9 19.1 0.00 0.00 0.00 31 854.8
20260904225126 58 228 12.2 19.1 0.00 0.00 0.00 31 854.8
20260904224928 58 223 12.2 18.2 0.00 0.00 0.00 31 854.8
20260904224727 58 223 13.0 16.5 0.00 0.00 0.00 31 854.8
20260904224626 58 226 12.2 16.5 0.00 0.00 0.00 31 854.8
20260904224528 58 225 13.0 16.5 0.00 0.00 0.00 31 854.8
20260904224328 58 228 13.9 16.5 0.00 0.00 0.00 31 854.9
20260904224110 58 227 13.0 20.9 0.00 0.00 0.00 31 854.9
20260904223912 58 219 13.9 22.6 0.00 0.00 0.00 31 854.9
20260904223712 58 217 14.8 22.6 0.00 0.00 0.00 31 854.9
20260904223610 58 223 12.2 17.4 0.00 0.00 0.00 31 854.9
20260904223511 58 226 10.4 16.5 0.00 0.00 0.00 31 854.9
20260904223107 58 225 12.2 16.5 0.00 0.00 0.00 31 854.9
20260904222908 58 225 10.4 14.8 0.00 0.00 0.00 31 854.9
20260904222708 58 215 13.0 18.2 0.00 0.00 0.00 31 854.8
20260904222607 58 220 13.0 18.2 0.00 0.00 0.00 31 854.8
20260904222507 58 218 13.0 18.2 0.00 0.00 0.00 31 854.8
20260904222308 59 217 13.0 16.5 0.00 0.00 0.00 31 854.9
20260904222104 59 215 14.8 23.5 0.00 0.00 0.00 31 854.9
20260904221905 59 215 13.9 20.0 0.00 0.00 0.00 31 854.9
20260904221716 59 216 13.9 20.0 0.00 0.00 0.00 31 855.0
20260904221604 59 216 12.2 20.0 0.00 0.00 0.00 31 855.0
20260904221505 59 214 11.3 16.5 0.00 0.00 0.00 31 855.0
20260904221101 58 222 11.3 18.2 0.00 0.00 0.00 31 855.0
20260904220902 58 224 10.4 18.2 0.00 0.00 0.00 31 855.0
20260904220702 58 221 10.4 15.6 0.00 0.00 0.00 31 855.1
20260904220601 58 214 10.4 15.6 0.00 0.00 0.00 31 855.1
20260904220501 58 215 10.4 15.6 0.00 0.00 0.00 31 855.1
20260904220301 58 217 11.3 22.6 0.00 0.00 0.00 31 855.1
20260904220058 58 218 10.4 14.8 0.00 0.00 0.00 31 855.1
20260904215859 58 224 12.2 17.4 0.00 0.00 0.00 31 855.0
20260904215659 58 216 11.3 17.4 0.00 0.00 0.00 31 855.0
20260904215558 58 216 13.0 19.1 0.00 0.00 0.00 31 854.9
20260904215459 58 217 13.0 19.1 0.00 0.00 0.00 31 854.9
20260904215258 58 220 13.0 19.1 0.00 0.00 0.00 31 854.9
20260904215055 58 216 13.0 19.1 0.00 0.00 0.00 31 854.9
20260904214856 58 222 12.2 23.5 0.00 0.00 0.00 31 854.9
20260904214656 58 209 13.9 23.5 0.00 0.00 0.00 31 854.8
20260904214555 58 217 13.0 18.2 0.00 0.00 0.00 31 854.8
20260904214455 58 221 13.0 22.6 0.00 0.00 0.00 31 854.7
20260904214256 58 218 10.4 22.6 0.00 0.00 0.00 31 854.7
20260904214051 58 225 12.2 18.2 0.00 0.00 0.00 31 854.6
20260904213853 58 213 13.0 17.4 0.00 0.00 0.00 31 854.5
20260904213552 58 208 13.9 26.9 0.00 0.00 0.00 31 854.5
20260904213453 58 210 14.8 28.7 0.00 0.00 0.00 31 854.6
20260904213252 58 206 14.8 28.7 0.00 0.00 0.00 31 854.9
20260904213049 58 213 14.8 22.6 0.00 0.00 0.00 31 855.0
20260904212850 58 220 13.0 19.1 0.00 0.00 0.00 31 855.1
20260904212649 58 215 13.0 19.1 0.00 0.00 0.00 31 855.0
20260904212549 58 214 13.0 19.1 0.00 0.00 0.00 31 855.0
20260904212249 58 210 13.9 18.2 0.00 0.00 0.00 31 855.0
20260904212046 58 218 13.0 19.1 0.00 0.00 0.00 31 855.0
20260904211847 58 216 12.2 19.1 0.00 0.00 0.00 31 855.0
20260904211647 58 214 12.2 18.2 0.00 0.00 0.00 31 855.1
20260904211546 58 223 13.0 18.2 0.00 0.00 0.00 31 855.1
20260904211447 58 219 13.0 20.9 0.00 0.00 0.00 31 855.1
20260904211247 58 213 13.0 20.9 0.00 0.00 0.00 31 855.1
20260904211043 58 212 12.2 19.1 0.00 0.00 0.00 31 855.1
20260904210843 58 218 13.0 20.9 0.00 0.00 0.00 31 855.1
20260904210643 58 222 13.0 20.9 0.00 0.00 0.00 31 855.1
20260904210543 58 219 12.2 19.1 0.00 0.00 0.00 31 855.1
20260904210245 58 220 13.0 25.2 0.00 0.00 0.00 31 855.1
20260904210040 58 214 12.2 20.9 0.00 0.00 0.00 31 855.1
20260904205841 58 207 14.8 23.5 0.00 0.00 0.00 31 855.0
20260904205641 58 206 13.0 23.5 0.00 0.00 0.00 31 855.1
20260904205540 58 220 11.3 20.9 0.00 0.00 0.00 31 855.1
20260904205241 58 222 11.3 18.2 0.00 0.00 0.00 31 855.0
20260904205037 58 216 13.9 26.1 0.00 0.00 0.00 31 854.9
20260904204837 58 219 13.9 21.7 0.00 0.00 0.00 31 854.9
20260904204638 58 218 13.0 19.1 0.00 0.00 0.00 31 855.0
20260904204537 58 222 12.2 19.1 0.00 0.00 0.00 31 855.1
20260904204437 58 231 11.3 16.5 0.00 0.00 0.00 31 855.1
20260904204237 58 224 13.0 21.7 0.00 0.00 0.00 31 855.0
20260904204034 57 219 13.9 20.0 0.00 0.00 0.00 31 855.0
20260904203836 57 216 12.2 17.4 0.00 0.00 0.00 31 855.1
20260904203534 57 216 12.2 20.0 0.00 0.00 0.00 31 855.2
20260904203235 57 227 12.2 22.6 0.00 0.00 0.00 31 855.3
20260904203031 57 223 12.2 19.1 0.00 0.00 0.00 31 855.4
20260904202832 57 227 12.2 21.7 0.00 0.00 0.00 31 855.4
20260904202632 58 228 12.2 16.5 0.00 0.00 0.00 31 855.4
20260904202531 58 221 13.0 20.0 0.00 0.00 0.00 31 855.4
20260904202432 58 222 13.9 20.0 0.00 0.00 0.00 31 855.3
20260904202231 58 225 13.9 20.0 0.00 0.00 0.00 31 855.2
20260904202028 58 229 13.9 21.7 0.00 0.00 0.00 31 855.2
20260904201826 58 224 13.9 22.6 0.00 0.00 0.00 31 855.2
20260904201627 58 220 14.8 22.6 0.00 0.00 0.00 31 855.2
20260904201525 58 221 13.9 20.9 0.00 0.00 0.00 31 855.2
20260904201427 58 222 13.0 20.0 0.00 0.00 0.00 31 855.2
20260904201226 58 220 13.9 20.0 0.00 0.00 0.00 31 855.2
20260904201022 58 212 13.9 19.1 0.00 0.00 0.00 31 855.2
20260904200822 58 216 14.8 21.7 0.00 0.00 0.00 31 855.2
20260904200509 58 223 15.6 26.1 0.00 0.00 0.00 31 855.2
20260904200411 58 225 14.8 26.1 0.00 0.00 0.00 31 855.2
20260904200210 58 228 13.0 17.4 0.00 0.00 0.00 31 855.3
20260904200006 58 232 13.0 23.5 0.00 0.00 0.00 31 855.3
20260904195807 58 227 13.9 20.0 0.00 0.00 0.00 31 855.3